SITRO-AIS 5 (KATYS)

Last updated on Sun Jun 21 2026 00:03:50 GMT+0000 (Coordinated Universal Time)

1 57176U 23091L 26171.40658515 .00010175 00000+0 35736-3 0 9992 2 57176 97.5056 235.3369 0012707 93.5424 266.7269 15.29518602164834
UTC large
Height (km)
Speed (km/s)
/
Latitude / Longitude
Inclination (degrees)
Orbital Period (minutes)
Azimuth
Elevation
Range (km)
Doppler Factor

Next 0 passes for location: London (51.5072 / 0.1276)

No passes found over London.
SITRO-AIS 5 (KATYS)